| time (UTC) | temp F | wind direction | speed MPH | gust MPH | rain 1hr in | rain 24hr in | rain mn in | humidity % | barometer mb |
| 20260510084521 | 0 | 225 | 7.0 | 11.0 | 0.00 | 0.00 | 0.00 | ||
| 20260510084020 | 0 | 225 | 6.0 | 11.0 | 0.00 | 0.00 | 0.00 | ||
| 20260510083520 | 0 | 225 | 6.0 | 10.0 | 0.00 | 0.00 | 0.00 | ||
| 20260510083021 | 0 | 248 | 8.0 | 11.0 | 0.00 | 0.00 | 0.00 | ||
| 20260510082521 | 0 | 248 | 9.0 | 12.0 | 0.00 | 0.00 | 0.00 | ||
| 20260510081521 | 0 | 225 | 5.0 | 9.0 | 0.00 | 0.00 | 0.00 | ||
| 20260510081021 | 0 | 248 | 7.0 | 10.0 | 0.00 | 0.00 | 0.00 | ||
| 20260510080523 | 0 | 248 | 7.0 | 9.0 | 0.00 | 0.00 | 0.00 | ||
| 20260510080026 | 0 | 248 | 8.0 | 10.0 | 0.00 | 0.00 | 0.00 | ||
| 20260510075520 | 0 | 225 | 8.0 | 11.0 | 0.00 | 0.00 | 0.00 | ||
| 20260510075020 | 0 | 225 | 8.0 | 13.0 | 0.00 | 0.00 | 0.00 | ||
| 20260510074520 | 0 | 225 | 9.0 | 15.0 | 0.00 | 0.00 | 0.00 | ||
| 20260510074025 | 0 | 225 | 8.0 | 12.0 | 0.00 | 0.00 | 0.00 | ||
| 20260510073520 | 0 | 225 | 7.0 | 11.0 | 0.00 | 0.00 | 0.00 | ||
| 20260510073020 | 0 | 225 | 6.0 | 10.0 | 0.00 | 0.00 | 0.00 | ||
| 20260510072521 | 0 | 225 | 6.0 | 11.0 | 0.00 | 0.00 | 0.00 | ||
| 20260510072042 | 0 | 225 | 7.0 | 12.0 | 0.00 | 0.00 | 0.00 | ||
| 20260510071520 | 0 | 225 | 8.0 | 13.0 | 0.00 | 0.00 | 0.00 | ||
| 20260510071021 | 0 | 225 | 6.0 | 11.0 | 0.00 | 0.00 | 0.00 | ||
| 20260510070520 | 0 | 225 | 6.0 | 11.0 | 0.00 | 0.00 | 0.00 | ||
| 20260510070020 | 0 | 225 | 8.0 | 11.0 | 0.00 | 0.00 | 0.00 | ||
| 20260510065520 | 0 | 203 | 9.0 | 12.0 | 0.00 | 0.00 | 0.00 | ||
| 20260510065020 | 0 | 203 | 8.0 | 10.0 | 0.00 | 0.00 | 0.00 | ||
| 20260510064520 | 0 | 203 | 9.0 | 10.0 | 0.00 | 0.00 | 0.00 | ||
| 20260510064020 | 0 | 203 | 8.0 | 10.0 | 0.00 | 0.00 | 0.00 | ||
| 20260510063520 | 0 | 203 | 8.0 | 10.0 | 0.00 | 0.00 | 0.00 | ||
| 20260510063024 | 0 | 203 | 7.0 | 9.0 | 0.00 | 0.00 | 0.00 | ||
| 20260510062020 | 0 | 203 | 6.0 | 7.0 | 0.00 | 0.00 | 0.00 | ||
| 20260510061520 | 0 | 203 | 5.0 | 6.0 | 0.00 | 0.00 | 0.00 | ||
| 20260510061044 | 0 | 203 | 5.0 | 7.0 | 0.00 | 0.00 | 0.00 | ||
| 20260510060604 | 0 | 203 | 6.0 | 7.0 | 0.00 | 0.00 | 0.00 | ||
| 20260510054540 | 0 | 203 | 8.0 | 10.0 | 0.00 | 0.00 | 0.00 | ||
| 20260510054020 | 0 | 180 | 9.0 | 11.0 | 0.00 | 0.00 | 0.00 | ||
| 20260510053521 | 0 | 180 | 9.0 | 12.0 | 0.00 | 0.00 | 0.00 | ||
| 20260510052523 | 0 | 180 | 10.0 | 12.0 | 0.00 | 0.00 | 0.00 | ||
| 20260510051520 | 0 | 158 | 6.0 | 8.0 | 0.00 | 0.00 | 0.00 | ||
| 20260510050020 | 0 | 113 | 3.0 | 6.0 | 0.00 | 0.00 | 0.00 | ||
| 20260510045520 | 0 | 113 | 2.0 | 3.0 | 0.00 | 0.00 | 0.00 | ||
| 20260510045100 | 0 | 113 | 1.0 | 3.0 | 0.00 | 0.00 | 0.00 | ||
| 20260510043519 | 0 | 135 | 3.0 | 4.0 | 0.00 | 0.00 | 0.00 | ||
| 20260510042519 | 0 | 180 | 6.0 | 9.0 | 0.00 | 0.00 | 0.00 | ||
| 20260510042019 | 0 | 180 | 8.0 | 11.0 | 0.00 | 0.00 | 0.00 | ||
| 20260510041520 | 0 | 180 | 7.0 | 11.0 | 0.00 | 0.00 | 0.00 | ||
| 20260510041040 | 0 | 180 | 7.0 | 9.0 | 0.00 | 0.00 | 0.00 | ||
| 20260510040537 | 0 | 180 | 9.0 | 11.0 | 0.00 | 0.00 | 0.00 | ||
| 20260510040100 | 0 | 180 | 10.0 | 14.0 | 0.00 | 0.00 | 0.00 | ||
| 20260510035524 | 0 | 180 | 14.0 | 17.0 | 0.00 | 0.00 | 0.00 | ||
| 20260510035023 | 0 | 180 | 14.0 | 17.0 | 0.00 | 0.00 | 0.00 | ||
| 20260510034521 | 0 | 180 | 14.0 | 16.0 | 0.00 | 0.00 | 0.00 | ||
| 20260510034021 | 0 | 180 | 13.0 | 15.0 | 0.00 | 0.00 | 0.00 | ||
| 20260510033521 | 0 | 180 | 15.0 | 17.0 | 0.00 | 0.00 | 0.00 | ||
| 20260510033045 | 0 | 180 | 15.0 | 18.0 | 0.00 | 0.00 | 0.00 | ||
| 20260510032521 | 0 | 180 | 14.0 | 17.0 | 0.00 | 0.00 | 0.00 | ||
| 20260510032020 | 0 | 203 | 14.0 | 17.0 | 0.00 | 0.00 | 0.00 | ||
| 20260510031057 | 0 | 180 | 13.0 | 16.0 | 0.00 | 0.00 | 0.00 | ||
| 20260510030520 | 0 | 180 | 12.0 | 14.0 | 0.00 | 0.00 | 0.00 | ||
| 20260510030020 | 0 | 180 | 12.0 | 15.0 | 0.00 | 0.00 | 0.00 | ||
| 20260510025520 | 0 | 180 | 13.0 | 15.0 | 0.00 | 0.00 | 0.00 | ||
| 20260510025020 | 0 | 180 | 13.0 | 15.0 | 0.00 | 0.00 | 0.00 | ||
| 20260510024520 | 0 | 203 | 13.0 | 15.0 | 0.00 | 0.00 | 0.00 | ||
| 20260510023519 | 0 | 203 | 14.0 | 17.0 | 0.00 | 0.00 | 0.00 | ||
| 20260510023025 | 0 | 203 | 16.0 | 19.0 | 0.00 | 0.00 | 0.00 | ||
| 20260510022520 | 0 | 203 | 17.0 | 19.0 | 0.00 | 0.00 | 0.00 | ||
| 20260510022021 | 0 | 203 | 17.0 | 20.0 | 0.00 | 0.00 | 0.00 | ||
| 20260510021520 | 0 | 203 | 18.0 | 20.0 | 0.00 | 0.00 | 0.00 | ||
| 20260510021042 | 0 | 203 | 17.0 | 19.0 | 0.00 | 0.00 | 0.00 | ||
| 20260510020529 | 0 | 203 | 18.0 | 21.0 | 0.00 | 0.00 | 0.00 | ||
| 20260510020024 | 0 | 203 | 18.0 | 21.0 | 0.00 | 0.00 | 0.00 | ||
| 20260510015541 | 0 | 203 | 19.0 | 21.0 | 0.00 | 0.00 | 0.00 | ||
| 20260510015020 | 0 | 203 | 19.0 | 23.0 | 0.00 | 0.00 | 0.00 | ||
| 20260510014521 | 0 | 203 | 19.0 | 22.0 | 0.00 | 0.00 | 0.00 | ||
| 20260510014020 | 0 | 203 | 20.0 | 24.0 | 0.00 | 0.00 | 0.00 | ||
| 20260510013601 | 0 | 203 | 18.0 | 22.0 | 0.00 | 0.00 | 0.00 | ||
| 20260510013021 | 0 | 203 | 18.0 | 23.0 | 0.00 | 0.00 | 0.00 | ||
| 20260510012542 | 0 | 203 | 19.0 | 22.0 | 0.00 | 0.00 | 0.00 | ||
| 20260510012020 | 0 | 203 | 19.0 | 21.0 | 0.00 | 0.00 | 0.00 | ||
| 20260510011520 | 0 | 203 | 17.0 | 20.0 | 0.00 | 0.00 | 0.00 | ||
| 20260510011042 | 0 | 203 | 13.0 | 19.0 | 0.00 | 0.00 | 0.00 | ||
| 20260510010520 | 0 | 225 | 12.0 | 15.0 | 0.00 | 0.00 | 0.00 | ||
| 20260510005520 | 0 | 225 | 11.0 | 15.0 | 0.00 | 0.00 | 0.00 | ||
| 20260510005020 | 0 | 225 | 11.0 | 15.0 | 0.00 | 0.00 | 0.00 | ||
| 20260510004520 | 0 | 225 | 11.0 | 17.0 | 0.00 | 0.00 | 0.00 | ||
| 20260510004021 | 0 | 225 | 11.0 | 15.0 | 0.00 | 0.00 | 0.00 | ||
| 20260510003542 | 0 | 225 | 8.0 | 14.0 | 0.00 | 0.00 | 0.00 | ||
| 20260510003020 | 0 | 225 | 9.0 | 14.0 | 0.00 | 0.00 | 0.00 | ||
| 20260510002540 | 0 | 225 | 10.0 | 15.0 | 0.00 | 0.00 | 0.00 | ||
| 20260510002043 | 0 | 248 | 9.0 | 14.0 | 0.00 | 0.00 | 0.00 | ||
| 20260510001542 | 0 | 225 | 11.0 | 17.0 | 0.00 | 0.00 | 0.00 | ||
| 20260510001021 | 0 | 225 | 16.0 | 22.0 | 0.00 | 0.00 | 0.00 | ||
| 20260510000523 | 0 | 225 | 17.0 | 23.0 | 0.00 | 0.00 | 0.00 | ||
| 20260510000026 | 0 | 203 | 19.0 | 23.0 | 0.00 | 0.00 | 0.00 | ||
| 20260509235520 | 0 | 203 | 21.0 | 25.0 | 0.00 | 0.00 | 0.00 | ||
| 20260509235020 | 0 | 203 | 21.0 | 25.0 | 0.00 | 0.00 | 0.00 | ||
| 20260509234521 | 0 | 203 | 21.0 | 27.0 | 0.00 | 0.00 | 0.00 | ||
| 20260509234020 | 0 | 203 | 21.0 | 26.0 | 0.00 | 0.00 | 0.00 | ||
| 20260509233520 | 0 | 203 | 21.0 | 25.0 | 0.00 | 0.00 | 0.00 | ||
| 20260509233020 | 0 | 203 | 20.0 | 25.0 | 0.00 | 0.00 | 0.00 | ||
| 20260509232520 | 0 | 225 | 11.0 | 18.0 | 0.00 | 0.00 | 0.00 | ||
| 20260509232040 | 0 | 225 | 9.0 | 14.0 | 0.00 | 0.00 | 0.00 | ||
| 20260509231521 | 0 | 225 | 7.0 | 13.0 | 0.00 | 0.00 | 0.00 | ||
| 20260509231020 | 0 | 225 | 9.0 | 15.0 | 0.00 | 0.00 | 0.00 | ||
| 20260509230521 | 0 | 225 | 12.0 | 17.0 | 0.00 | 0.00 | 0.00 | ||
| 20260509230021 | 0 | 203 | 14.0 | 16.0 | 0.00 | 0.00 | 0.00 | ||
| 20260509225540 | 0 | 203 | 13.0 | 15.0 | 0.00 | 0.00 | 0.00 | ||
| 20260509225020 | 0 | 203 | 12.0 | 15.0 | 0.00 | 0.00 | 0.00 | ||
| 20260509224524 | 0 | 203 | 11.0 | 14.0 | 0.00 | 0.00 | 0.00 | ||
| 20260509224021 | 0 | 203 | 11.0 | 15.0 | 0.00 | 0.00 | 0.00 | ||
| 20260509223520 | 0 | 203 | 10.0 | 13.0 | 0.00 | 0.00 | 0.00 | ||
| 20260509223020 | 0 | 203 | 6.0 | 9.0 | 0.00 | 0.00 | 0.00 | ||
| 20260509222520 | 0 | 203 | 4.0 | 7.0 | 0.00 | 0.00 | 0.00 | ||
| 20260509222022 | 0 | 270 | 3.0 | 4.0 | 0.00 | 0.00 | 0.00 | ||
| 20260509221520 | 0 | 270 | 3.0 | 4.0 | 0.00 | 0.00 | 0.00 | ||
| 20260509221020 | 0 | 270 | 3.0 | 4.0 | 0.00 | 0.00 | 0.00 | ||
| 20260509220022 | 0 | 203 | 3.0 | 5.0 | 0.00 | 0.00 | 0.00 | ||
| 20260509215520 | 0 | 180 | 6.0 | 9.0 | 0.00 | 0.00 | 0.00 | ||
| 20260509215020 | 0 | 180 | 6.0 | 8.0 | 0.00 | 0.00 | 0.00 | ||
| 20260509214520 | 0 | 158 | 6.0 | 8.0 | 0.00 | 0.00 | 0.00 | ||
| 20260509214025 | 0 | 158 | 6.0 | 8.0 | 0.00 | 0.00 | 0.00 | ||
| 20260509213521 | 0 | 135 | 6.0 | 9.0 | 0.00 | 0.00 | 0.00 | ||
| 20260509213024 | 0 | 158 | 5.0 | 6.0 | 0.00 | 0.00 | 0.00 | ||
| 20260509212521 | 0 | 158 | 6.0 | 8.0 | 0.00 | 0.00 | 0.00 | ||
| 20260509212027 | 0 | 158 | 4.0 | 8.0 | 0.00 | 0.00 | 0.00 | ||
| 20260509211520 | 0 | 135 | 3.0 | 6.0 | 0.00 | 0.00 | 0.00 | ||
| 20260509211020 | 0 | 158 | 3.0 | 6.0 | 0.00 | 0.00 | 0.00 | ||
| 20260509210520 | 0 | 113 | 4.0 | 7.0 | 0.00 | 0.00 | 0.00 | ||
| 20260509210020 | 0 | 113 | 6.0 | 8.0 | 0.00 | 0.00 | 0.00 | ||
| 20260509205521 | 0 | 90 | 3.0 | 4.0 | 0.00 | 0.00 | 0.00 | ||
| 20260509205053 | 0 | 45 | 2.0 | 4.0 | 0.00 | 0.00 | 0.00 | ||
| 20260509204619 | 0 | 225 | 1.0 | 5.0 | 0.00 | 0.00 | 0.00 | ||
| 20260509204021 | 0 | 225 | 3.0 | 6.0 | 0.00 | 0.00 | 0.00 | 93 | |
| 20260509203521 | 51 | 270 | 2.0 | 3.0 | 0.00 | 0.00 | 0.00 | 93 | |
| 20260509203022 | 51 | 270 | 1.0 | 4.0 | 0.00 | 0.00 | 0.00 | 92 | |
| 20260509202520 | 51 | 180 | 5.0 | 8.0 | 0.00 | 0.00 | 0.00 | 92 | |
| 20260509202023 | 51 | 158 | 7.0 | 10.0 | 0.00 | 0.00 | 0.00 | 92 | |
| 20260509201520 | 51 | 135 | 9.0 | 12.0 | 0.00 | 0.00 | 0.00 | 93 | |
| 20260509201021 | 51 | 135 | 10.0 | 13.0 | 0.00 | 0.00 | 0.00 | 93 | |
| 20260509195520 | 50 | 135 | 10.0 | 13.0 | 0.00 | 0.00 | 0.00 | 93 | |
| 20260509195023 | 50 | 135 | 11.0 | 15.0 | 0.00 | 0.00 | 0.00 | 93 | |
| 20260509194521 | 50 | 135 | 10.0 | 14.0 | 0.00 | 0.00 | 0.00 | 93 | |
| 20260509194021 | 50 | 113 | 10.0 | 12.0 | 0.00 | 0.00 | 0.00 | 93 | |
| 20260509193523 | 50 | 113 | 10.0 | 13.0 | 0.00 | 0.00 | 0.00 | 93 | |
| 20260509193025 | 50 | 113 | 11.0 | 15.0 | 0.00 | 0.00 | 0.00 | 93 | |
| 20260509192521 | 50 | 113 | 11.0 | 14.0 | 0.00 | 0.00 | 0.00 | 93 | |
| 20260509192023 | 50 | 113 | 12.0 | 16.0 | 0.00 | 0.00 | 0.00 | 93 | |
| 20260509191520 | 50 | 113 | 13.0 | 16.0 | 0.00 | 0.00 | 0.00 | 93 | |
| 20260509191020 | 50 | 113 | 12.0 | 15.0 | 0.00 | 0.00 | 0.00 | 92 | |
| 20260509190520 | 50 | 113 | 13.0 | 16.0 | 0.00 | 0.00 | 0.00 | 92 | |
| 20260509190023 | 50 | 113 | 12.0 | 15.0 | 0.00 | 0.00 | 0.00 | 92 | |
| 20260509185523 | 50 | 113 | 12.0 | 16.0 | 0.00 | 0.00 | 0.00 | 92 | |
| 20260509185025 | 50 | 90 | 14.0 | 17.0 | 0.00 | 0.00 | 0.00 | 92 | |
| 20260509184542 | 50 | 90 | 14.0 | 17.0 | 0.00 | 0.00 | 0.00 | 92 | |
| 20260509184022 | 50 | 113 | 12.0 | 15.0 | 0.00 | 0.00 | 0.00 | 92 | |
| 20260509183522 | 50 | 113 | 12.0 | 14.0 | 0.00 | 0.00 | 0.00 | 92 | |
| 20260509183043 | 50 | 113 | 12.0 | 15.0 | 0.00 | 0.00 | 0.00 | 91 | |
| 20260509182521 | 50 | 113 | 11.0 | 14.0 | 0.00 | 0.00 | 0.00 | 91 | |
| 20260509182022 | 50 | 113 | 12.0 | 15.0 | 0.00 | 0.00 | 0.00 | 91 | |
| 20260509181603 | 50 | 113 | 12.0 | 15.0 | 0.00 | 0.00 | 0.00 | 91 | |
| 20260509181022 | 50 | 113 | 12.0 | 16.0 | 0.00 | 0.00 | 0.00 | 90 | |
| 20260509180524 | 50 | 135 | 10.0 | 14.0 | 0.00 | 0.00 | 0.00 | 90 | |
| 20260509180025 | 50 | 113 | 11.0 | 13.0 | 0.00 | 0.00 | 0.00 | 90 | |
| 20260509175522 | 50 | 113 | 10.0 | 13.0 | 0.00 | 0.00 | 0.00 | 90 | |
| 20260509175021 | 50 | 113 | 11.0 | 15.0 | 0.00 | 0.00 | 0.00 | 89 | |
| 20260509174522 | 50 | 113 | 11.0 | 14.0 | 0.00 | 0.00 | 0.00 | 89 | |
| 20260509174022 | 50 | 113 | 10.0 | 13.0 | 0.00 | 0.00 | 0.00 | 89 | |
| 20260509173542 | 51 | 113 | 9.0 | 11.0 | 0.00 | 0.00 | 0.00 | 88 | |
| 20260509172522 | 51 | 113 | 7.0 | 10.0 | 0.00 | 0.00 | 0.00 | 88 | |
| 20260509172023 | 51 | 113 | 8.0 | 11.0 | 0.00 | 0.00 | 0.00 | 88 | |
| 20260509171522 | 51 | 113 | 9.0 | 11.0 | 0.00 | 0.00 | 0.00 | 88 | |
| 20260509171021 | 51 | 113 | 8.0 | 12.0 | 0.00 | 0.00 | 0.00 | 88 | |
| 20260509170522 | 51 | 113 | 9.0 | 12.0 | 0.00 | 0.00 | 0.00 | 89 | |
| 20260509170022 | 51 | 113 | 9.0 | 12.0 | 0.00 | 0.00 | 0.00 | 89 | |
| 20260509165523 | 51 | 113 | 8.0 | 10.0 | 0.00 | 0.00 | 0.00 | 89 | |
| 20260509165022 | 51 | 113 | 7.0 | 10.0 | 0.00 | 0.00 | 0.00 | 89 | |
| 20260509164521 | 51 | 113 | 8.0 | 11.0 | 0.00 | 0.00 | 0.00 | 89 | |
| 20260509164042 | 51 | 113 | 7.0 | 9.0 | 0.00 | 0.00 | 0.00 | 90 | |
| 20260509163545 | 51 | 113 | 7.0 | 10.0 | 0.00 | 0.00 | 0.00 | 90 | |
| 20260509163022 | 51 | 90 | 5.0 | 8.0 | 0.00 | 0.00 | 0.00 | 90 | |
| 20260509162521 | 51 | 90 | 7.0 | 9.0 | 0.00 | 0.00 | 0.00 | 90 | |
| 20260509162042 | 51 | 90 | 5.0 | 7.0 | 0.00 | 0.00 | 0.00 | 90 | |
| 20260509161522 | 51 | 90 | 7.0 | 9.0 | 0.00 | 0.00 | 0.00 | 90 | |
| 20260509161021 | 51 | 113 | 6.0 | 8.0 | 0.00 | 0.00 | 0.00 | 89 | |
| 20260509160532 | 51 | 113 | 4.0 | 8.0 | 0.00 | 0.00 | 0.00 | 89 | |
| 20260509160024 | 51 | 113 | 5.0 | 8.0 | 0.00 | 0.00 | 0.00 | 89 | |
| 20260509155522 | 51 | 113 | 4.0 | 7.0 | 0.00 | 0.00 | 0.00 | 89 | |
| 20260509155022 | 51 | 113 | 4.0 | 7.0 | 0.00 | 0.00 | 0.00 | 89 | |
| 20260509154523 | 51 | 113 | 4.0 | 7.0 | 0.00 | 0.00 | 0.00 | 88 | |
| 20260509154022 | 51 | 113 | 5.0 | 7.0 | 0.00 | 0.00 | 0.00 | 88 | |
| 20260509153521 | 51 | 135 | 4.0 | 7.0 | 0.00 | 0.00 | 0.00 | 88 | |
| 20260509153022 | 51 | 158 | 4.0 | 5.0 | 0.00 | 0.00 | 0.00 | 87 | |
| 20260509152522 | 51 | 158 | 3.0 | 5.0 | 0.00 | 0.00 | 0.00 | 87 | |
| 20260509152022 | 51 | 180 | 3.0 | 4.0 | 0.00 | 0.00 | 0.00 | 87 | |
| 20260509151521 | 51 | 203 | 4.0 | 5.0 | 0.00 | 0.00 | 0.00 | 87 | |
| 20260509150022 | 50 | 203 | 4.0 | 5.0 | 0.00 | 0.00 | 0.00 | 86 | |
| 20260509145521 | 50 | 203 | 6.0 | 7.0 | 0.00 | 0.00 | 0.00 | 85 | |
| 20260509145021 | 50 | 203 | 7.0 | 8.0 | 0.00 | 0.00 | 0.00 | 85 | |
| 20260509144522 | 50 | 203 | 7.0 | 9.0 | 0.00 | 0.00 | 0.00 | 85 | |
| 20260509144042 | 50 | 180 | 7.0 | 9.0 | 0.00 | 0.00 | 0.00 | 84 | |
| 20260509143522 | 49 | 203 | 7.0 | 9.0 | 0.00 | 0.00 | 0.00 | 84 | |
| 20260509143022 | 49 | 203 | 8.0 | 9.0 | 0.00 | 0.00 | 0.00 | 84 | |
| 20260509142521 | 49 | 203 | 8.0 | 9.0 | 0.00 | 0.00 | 0.00 | 84 | |
| 20260509142022 | 49 | 203 | 8.0 | 9.0 | 0.00 | 0.00 | 0.00 | 84 | |
| 20260509141521 | 49 | 203 | 8.0 | 9.0 | 0.00 | 0.00 | 0.00 | 84 | |
| 20260509141021 | 49 | 203 | 10.0 | 11.0 | 0.00 | 0.00 | 0.00 | 83 | |
| 20260509140530 | 49 | 203 | 10.0 | 12.0 | 0.00 | 0.00 | 0.00 | 83 | |
| 20260509140044 | 49 | 203 | 11.0 | 12.0 | 0.00 | 0.00 | 0.00 | 84 | |
| 20260509135522 | 49 | 203 | 11.0 | 13.0 | 0.00 | 0.00 | 0.00 | 84 | |
| 20260509135021 | 49 | 203 | 11.0 | 12.0 | 0.00 | 0.00 | 0.00 | 84 | |
| 20260509134601 | 0 | 0.0 | 0.0 | 0.00 | 0.00 | 0.00 | |||
| 20260509134003 | 0 | 203 | 10.0 | 12.0 | 0.00 | 0.00 | 0.00 | ||
| 20260509133543 | 0 | 203 | 10.0 | 12.0 | 0.00 | 0.00 | 0.00 | ||
| 20260509133023 | 0 | 203 | 7.0 | 10.0 | 0.00 | 0.00 | 0.00 | ||
| 20260509132525 | 0 | 225 | 4.0 | 7.0 | 0.00 | 0.00 | 0.00 | ||
| 20260509132021 | 0 | 248 | 4.0 | 8.0 | 0.00 | 0.00 | 0.00 | ||
| 20260509131542 | 0 | 225 | 4.0 | 7.0 | 0.00 | 0.00 | 0.00 | ||
| 20260509131022 | 0 | 225 | 3.0 | 6.0 | 0.00 | 0.00 | 0.00 | ||
| 20260509130521 | 0 | 203 | 5.0 | 7.0 | 0.00 | 0.00 | 0.00 | ||
| 20260509125521 | 0 | 203 | 9.0 | 11.0 | 0.00 | 0.00 | 0.00 | ||
| 20260509125100 | 0 | 203 | 11.0 | 15.0 | 0.00 | 0.00 | 0.00 | ||
| 20260509124521 | 0 | 203 | 11.0 | 16.0 | 0.00 | 0.00 | 0.00 | ||
| 20260509124042 | 0 | 203 | 8.0 | 11.0 | 0.00 | 0.00 | 0.00 | ||
| 20260509123521 | 0 | 203 | 8.0 | 10.0 | 0.00 | 0.00 | 0.00 | ||
| 20260509123021 | 0 | 203 | 3.0 | 5.0 | 0.00 | 0.00 | 0.00 | ||
| 20260509122521 | 0 | 180 | 2.0 | 5.0 | 0.00 | 0.00 | 0.00 | ||
| 20260509122021 | 0 | 203 | 4.0 | 6.0 | 0.00 | 0.00 | 0.00 | ||
| 20260509121021 | 0 | 203 | 4.0 | 6.0 | 0.00 | 0.00 | 0.00 | ||
| 20260509120530 | 0 | 180 | 3.0 | 4.0 | 0.00 | 0.00 | 0.00 | ||
| 20260509120044 | 0 | 180 | 3.0 | 4.0 | 0.00 | 0.00 | 0.00 | ||
| 20260509115521 | 0 | 203 | 3.0 | 4.0 | 0.00 | 0.00 | 0.00 | ||
| 20260509115022 | 0 | 203 | 3.0 | 4.0 | 0.00 | 0.00 | 0.00 | ||
| 20260509114522 | 0 | 203 | 4.0 | 5.0 | 0.00 | 0.00 | 0.00 | ||
| 20260509114042 | 0 | 203 | 4.0 | 5.0 | 0.00 | 0.00 | 0.00 | ||
| 20260509113541 | 0 | 203 | 3.0 | 4.0 | 0.00 | 0.00 | 0.00 | ||
| 20260509113022 | 0 | 203 | 2.0 | 4.0 | 0.00 | 0.00 | 0.00 | ||
| 20260509112521 | 0 | 225 | 2.0 | 4.0 | 0.00 | 0.00 | 0.00 | ||
| 20260509112021 | 0 | 248 | 3.0 | 5.0 | 0.00 | 0.00 | 0.00 | ||
| 20260509111521 | 0 | 248 | 4.0 | 5.0 | 0.00 | 0.00 | 0.00 | ||
| 20260509111021 | 0 | 248 | 4.0 | 5.0 | 0.00 | 0.00 | 0.00 | ||
| 20260509110525 | 0 | 248 | 4.0 | 6.0 | 0.00 | 0.00 | 0.00 | ||
| 20260509110021 | 0 | 270 | 6.0 | 7.0 | 0.00 | 0.00 | 0.00 | ||
| 20260509105602 | 0 | 270 | 7.0 | 8.0 | 0.00 | 0.00 | 0.00 | ||
| 20260509105059 | 0 | 270 | 6.0 | 8.0 | 0.00 | 0.00 | 0.00 | ||
| 20260509104521 | 0 | 270 | 6.0 | 7.0 | 0.00 | 0.00 | 0.00 | ||
| 20260509104021 | 0 | 270 | 5.0 | 7.0 | 0.00 | 0.00 | 0.00 | ||
| 20260509103521 | 0 | 270 | 4.0 | 6.0 | 0.00 | 0.00 | 0.00 | ||
| 20260509103021 | 0 | 248 | 4.0 | 6.0 | 0.00 | 0.00 | 0.00 | ||
| 20260509102524 | 0 | 248 | 5.0 | 7.0 | 0.00 | 0.00 | 0.00 | ||
| 20260509102026 | 0 | 248 | 6.0 | 7.0 | 0.00 | 0.00 | 0.00 | ||
| 20260509101521 | 0 | 248 | 5.0 | 7.0 | 0.00 | 0.00 | 0.00 | ||
| 20260509101021 | 0 | 248 | 5.0 | 7.0 | 0.00 | 0.00 | 0.00 | ||
| 20260509100539 | 0 | 248 | 6.0 | 8.0 | 0.00 | 0.00 | 0.00 | ||
| 20260509100032 | 0 | 248 | 5.0 | 7.0 | 0.00 | 0.00 | 0.00 | ||
| 20260509095521 | 0 | 248 | 5.0 | 7.0 | 0.00 | 0.00 | 0.00 | ||
| 20260509095021 | 0 | 248 | 5.0 | 8.0 | 0.00 | 0.00 | 0.00 | ||
| 20260509094521 | 0 | 248 | 6.0 | 8.0 | 0.00 | 0.00 | 0.00 | ||
| 20260509094021 | 0 | 248 | 5.0 | 7.0 | 0.00 | 0.00 | 0.00 | ||
| 20260509093520 | 0 | 248 | 6.0 | 8.0 | 0.00 | 0.00 | 0.00 | ||
| 20260509093021 | 0 | 248 | 6.0 | 8.0 | 0.00 | 0.00 | 0.00 | ||
| 20260509092526 | 0 | 248 | 6.0 | 8.0 | 0.00 | 0.00 | 0.00 | ||
| 20260509092047 | 0 | 248 | 7.0 | 9.0 | 0.00 | 0.00 | 0.00 | ||
| 20260509091524 | 0 | 248 | 8.0 | 10.0 | 0.00 | 0.00 | 0.00 | ||
| 20260509091021 | 0 | 248 | 7.0 | 9.0 | 0.00 | 0.00 | 0.00 | ||
| 20260509090521 | 0 | 248 | 7.0 | 9.0 | 0.00 | 0.00 | 0.00 | ||
| 20260509090021 | 0 | 248 | 7.0 | 8.0 | 0.00 | 0.00 | 0.00 | ||
| 20260509085541 | 0 | 248 | 6.0 | 9.0 | 0.00 | 0.00 | 0.00 | ||
| 20260509085101 | 0 | 248 | 7.0 | 9.0 | 0.00 | 0.00 | 0.00 |